Weather History for K0J4 - September, 2013

Change the Weather History Date:

Monday, September 23, 2013

  Actual Average (KCEW) Record (KCEW)
Temperature  
Mean Temperature 79 °F -  
Max Temperature 87 °F 87 °F 94 °F (1978)
Min Temperature 71 °F 60 °F 43 °F (1999)
Cooling Degree Days 14    
Growing Degree Days 29 (Base 50)    
Moisture  
Dew Point 73 °F    
Average Humidity 87    
Maximum Humidity 100    
Minimum Humidity 62    
Precipitation  
Precipitation 0.59 in - - ()
Sea Level Pressure  
Sea Level Pressure 29.89 in    
Wind  
Wind Speed 5 mph (East)    
Max Wind Speed 10 mph    
Max Gust Speed 16 mph    
Visibility 8 miles    
Events Rain , Thunderstorm    
Averages and records for this station are not official NWS values.
T = Trace of Precipitation, MM = Missing Value Source: NWS Daily Summary

Daily Weather History Graph

Daily Weather History Graph

Search for Another Location

Airport or City:

Trip Planner

Search our weather history database for the weather conditions in past years. The results will help you decide how hot, cold, wet, or windy it might be!

Date:

Astronomy

Sep. 23, 2013 Rise Set
Actual Time 6:34 AM CDT 6:40 PM CDT
Civil Twilight 6:10 AM CDT 7:04 PM CDT
Nautical Twilight 5:41 AM CDT 7:32 PM CDT
Astronomical Twilight 5:13 AM CDT 8:00 PM CDT
Moon 9:30 PM CDT (9/23) 10:34 AM CDT (9/23)
Length of Visible Light 12h 54m
Length of Day
12h 05m
Waning Gibbous, 81% of the Moon is Illuminated
Sep 23
Waning Gibbous
Sep 26
Last Quarter
Oct 4
New
Oct 11
First Quarter
Oct 18
Full

Hourly Weather History & Observations

Time (CDT) Temp. Heat Index Dew Point Humidity Pressure Visibility Wind Dir Wind Speed Gust Speed Precip Events Conditions
12:58 AM 72.0 °F - 70.0 °F 93% 29.81 in 9.0 mi ENE 4.6 mph - N/A   Clear
1:20 AM 71.6 °F - 69.8 °F 94% 29.81 in 8.0 mi NE 4.6 mph - N/A   Partly Cloudy
1:41 AM 71.6 °F - 69.8 °F 94% 29.80 in 10.0 mi ENE 4.6 mph - N/A   Mostly Cloudy
1:58 AM 71.1 °F - 69.1 °F 93% 29.78 in 10.0 mi ENE 4.6 mph - N/A   Mostly Cloudy
2:58 AM 71.1 °F - 69.1 °F 93% 29.78 in 10.0 mi NE 4.6 mph - N/A   Overcast
3:44 AM 71.6 °F - 69.8 °F 94% 29.78 in 10.0 mi ENE 6.9 mph - N/A   Overcast
3:58 AM 71.1 °F - 69.1 °F 93% 29.76 in 9.0 mi ENE 6.9 mph - N/A   Overcast
4:58 AM 72.0 °F - 70.0 °F 93% 29.79 in 6.0 mi East 5.8 mph - N/A   Overcast
5:58 AM 72.0 °F - 71.1 °F 97% 29.83 in 8.0 mi East 5.8 mph - N/A   Overcast
6:58 AM 73.0 °F - 71.1 °F 93% 29.85 in 10.0 mi East 3.5 mph - N/A   Overcast
7:58 AM 73.9 °F - 71.1 °F 91% 29.88 in 9.0 mi ENE 4.6 mph - N/A   Overcast
8:58 AM 75.0 °F - 72.0 °F 90% 29.90 in 5.0 mi Variable 4.6 mph - N/A   Overcast
9:58 AM 75.9 °F - 73.0 °F 91% 29.94 in 10.0 mi ESE 4.6 mph - N/A   Overcast
10:53 AM 77.0 °F - 73.4 °F 89% 29.96 in 10.0 mi Calm Calm - N/A   Overcast
10:58 AM 78.1 °F - 73.9 °F 87% 29.96 in 10.0 mi Calm Calm - N/A   Overcast
11:23 AM 80.6 °F 85.4 °F 73.4 °F 79% 29.97 in 10.0 mi Calm Calm - N/A   Overcast
11:58 AM 82.9 °F 89.4 °F 73.9 °F 74% 29.96 in 10.0 mi Calm Calm - N/A   Mostly Cloudy
12:05 PM 82.4 °F 88.2 °F 73.4 °F 74% 29.95 in 10.0 mi SSE 4.6 mph - N/A   Mostly Cloudy
12:10 PM 84.2 °F 90.9 °F 73.4 °F 70% 29.94 in 10.0 mi South 3.5 mph - N/A   Scattered Clouds
12:49 PM 86.0 °F 93.4 °F 73.4 °F 66% 29.92 in 10.0 mi South 6.9 mph - N/A   Mostly Cloudy
12:56 PM 86.0 °F 93.4 °F 73.4 °F 66% 29.94 in 10.0 mi SSW 5.8 mph - N/A   Mostly Cloudy
12:58 PM 86.0 °F 92.2 °F 72.0 °F 63% 29.93 in 10.0 mi Variable 3.5 mph - N/A   Mostly Cloudy
1:14 PM 86.0 °F 93.4 °F 73.4 °F 66% 29.92 in 10.0 mi SW 6.9 mph - N/A   Mostly Cloudy
1:18 PM 87.8 °F 95.6 °F 73.4 °F 62% 29.93 in 10.0 mi SSW 3.5 mph - N/A   Mostly Cloudy
1:58 PM 82.0 °F 86.7 °F 72.0 °F 71% 29.78 in 10.0 mi SSE 8.1 mph - N/A   Overcast
2:58 PM 84.9 °F 90.7 °F 72.0 °F 65% 29.84 in 10.0 mi South 9.2 mph - N/A   Clear
3:58 PM 84.0 °F 91.9 °F 75.0 °F 74% 29.84 in 10.0 mi SE 3.5 mph - N/A   Scattered Clouds
4:58 PM 84.0 °F 90.2 °F 73.0 °F 69% 29.91 in 10.0 mi ESE 4.6 mph - N/A   Clear
5:58 PM 81.0 °F 86.7 °F 75.0 °F 82% 29.91 in 10.0 mi North 6.9 mph - N/A   Partly Cloudy
6:58 PM 78.1 °F - 73.9 °F 87% 29.85 in 10.0 mi NNE 6.9 mph - N/A   Overcast
7:14 PM 77.0 °F - 73.4 °F 89% 29.89 in 6.0 mi SSE 8.1 mph - 0.02 in Rain Rain
7:18 PM 77.0 °F - 73.4 °F 89% 29.88 in 4.0 mi SSE 10.4 mph 16.1 mph 0.02 in Rain , Thunderstorm Thunderstorms and Rain
7:34 PM 75.2 °F - 73.4 °F 94% 29.88 in 2.0 mi South 3.5 mph - 0.14 in Rain , Thunderstorm Heavy Thunderstorms and Rain
7:40 PM 75.2 °F - 73.4 °F 94% 29.90 in 2.5 mi East 5.8 mph - 0.17 in Rain , Thunderstorm Heavy Thunderstorms and Rain
7:45 PM 75.2 °F - 73.4 °F 94% 29.89 in 4.0 mi Calm Calm - 0.19 in Rain , Thunderstorm Heavy Thunderstorms and Rain
7:49 PM 75.2 °F - 73.4 °F 94% 29.90 in 4.0 mi Calm Calm - 0.20 in Rain , Thunderstorm Heavy Thunderstorms and Rain
7:53 PM 75.2 °F - 73.4 °F 94% 29.89 in 5.0 mi East 4.6 mph - 0.21 in Rain Rain
7:58 PM 75.0 °F - 73.0 °F 94% 29.89 in 5.0 mi ENE 4.6 mph - 0.22 in Rain Rain
8:58 PM 73.9 °F - 73.0 °F 97% 29.90 in 10.0 mi East 6.9 mph - 0.14 in Rain Light Rain
9:30 PM 73.4 °F - 73.4 °F 100% 29.93 in 2.0 mi NE 3.5 mph - 0.12 in Rain Heavy Rain
9:36 PM 73.4 °F - 73.4 °F 100% 29.92 in 1.8 mi NE 5.8 mph - 0.20 in Rain Heavy Rain
9:42 PM 73.4 °F - 73.4 °F 100% 29.91 in 3.0 mi NE 5.8 mph - 0.21 in Rain Rain
9:58 PM 73.9 °F - 73.0 °F 97% 29.91 in 10.0 mi ENE 4.6 mph - 0.21 in Rain Light Rain
10:06 PM 73.4 °F - 73.4 °F 100% 29.92 in 7.0 mi East 3.5 mph - 0.01 in Rain Rain
10:33 PM 73.4 °F - 73.4 °F 100% 29.95 in 10.0 mi ENE 5.8 mph - 0.02 in Rain Light Rain
10:58 PM 73.9 °F - 73.0 °F 97% 29.94 in 10.0 mi ENE 5.8 mph - 0.02 in   Overcast
11:17 PM 73.4 °F - 73.4 °F 100% 29.96 in 10.0 mi East 5.8 mph - N/A   Overcast
11:26 PM 73.4 °F - 73.4 °F 100% 29.97 in 10.0 mi East 6.9 mph - N/A   Overcast
11:58 PM 73.9 °F - 73.0 °F 97% 29.96 in 10.0 mi East 3.5 mph - N/A   Mostly Cloudy